User: anonymous   Login
Location: Gugi
(45.4667°N, 11.1000°E)
Time: 12:03:15
(UTC+00:00)
Language:

NOSS 2-3 (C) - Orbit

View from above orbital plane
View from above orbital plane
View from above satellite
View from above satellite

Ground track
Ground track

The orbit data is extracted from the following two-line orbital elements,

1 23908U 96029C   20007.27935704 0.00000030  00000-0  12974-4 0    07
2 23908  63.3654 170.6088 0687905  19.9279 340.0721 13.40911732    01
Epoch (UTC): 07 January 2020 06:42:16
Eccentricity: 0.0687905
inclination: 63.3654°
perigee height: 591 km
apogee height: 1621 km
right ascension of ascending node: 170.6088°
argument of perigee: 19.9279°
revolutions per day: 13.40911732
mean anomaly at epoch: 340.0721°
orbit number at epoch: 0

The dashed part of the orbit path shows where the satellite is in the earth's shadow,  

DLR